Jackson, MI

12:31 AM EDT on May 22, 2018 (GMT -0400)
Jackson County-Reynolds

Weather History for KJXN - December, 2012

Change the Weather History Date:

Tuesday, December 11, 2012

  Actual Average Record
Temperature  
Mean Temperature 29 °F 29 °F  
Max Temperature 36 °F 36 °F 62 °F (1949)
Min Temperature 21 °F 23 °F -9 °F (1977)
Degree Days  
Heating Degree Days 36 36  
Month to date heating degree days 280 372  
Since 1 July heating degree days 1718 1776  
Cooling Degree Days 0 0  
Month to date cooling degree days 0 0  
Year to date cooling degree days 873 592  
Moisture  
Dew Point 21 °F    
Average Humidity 73    
Maximum Humidity 92    
Minimum Humidity 54    
Precipitation  
Precipitation T in 0.06 in 0.62 in (1965)
Month to date precipitation 0.92 0.72  
Year to date precipitation 24.22 30.35  
Sea Level Pressure  
Sea Level Pressure 30.01 in    
Wind  
Wind Speed 4 mph (SW)    
Max Wind Speed 20 mph    
Max Gust Speed 24 mph    
Visibility 9 miles    
Events Snow    
T = Trace of Precipitation, MM = Missing Value Source: NWS Daily Summary

Daily Weather History Graph

Daily Weather History Graph

Search for Another Location

Airport or City:

Astronomy

Dec. 11, 2012 Rise Set
Actual Time 7:57 AM EST 5:05 PM EST
Civil Twilight 7:25 AM EST 5:37 PM EST
Nautical Twilight 6:49 AM EST 6:12 PM EST
Astronomical Twilight 6:15 AM EST 6:46 PM EST
Moon 5:49 AM EST (12/11) 3:44 PM EST (12/11)
Length of Visible Light 10h 12m
Length of Day
9h 08m
Waning Crescent, 4% of the Moon is Illuminated
Dec 11
Waning Crescent
Dec 13
New
Dec 20
First Quarter
Dec 28
Full
Jan 4
Last Quarter

Hourly Weather History & Observations

Time (EST) Temp. Windchill Dew Point Humidity Pressure Visibility Wind Dir Wind Speed Gust Speed Precip Events Conditions
12:56 AM 28.9 °F - 21.0 °F 72% 29.89 in 10.0 mi Calm Calm - N/A   Overcast
1:46 AM 28.4 °F 23.3 °F 21.2 °F 74% 29.87 in 10.0 mi West 4.6 mph - N/A   Overcast
1:56 AM 28.0 °F 24.2 °F 21.0 °F 75% 29.90 in 10.0 mi West 3.5 mph - N/A   Mostly Cloudy
2:09 AM 26.6 °F 21.2 °F 21.2 °F 80% 29.87 in 10.0 mi NW 4.6 mph - N/A   Partly Cloudy
2:56 AM 25.0 °F - 19.0 °F 78% 29.92 in 10.0 mi Calm Calm - N/A   Clear
3:56 AM 23.0 °F 18.4 °F 19.0 °F 85% 29.94 in 10.0 mi WSW 3.5 mph - N/A   Clear
4:56 AM 21.9 °F - 19.0 °F 89% 29.96 in 10.0 mi Calm Calm - N/A   Mostly Cloudy
5:56 AM 25.0 °F - 21.0 °F 85% 29.97 in 10.0 mi Calm Calm - N/A   Overcast
6:56 AM 25.0 °F 20.7 °F 21.0 °F 85% 29.99 in 10.0 mi SSW 3.5 mph - N/A   Overcast
7:56 AM 26.1 °F - 21.9 °F 84% 30.01 in 10.0 mi Calm Calm - N/A   Overcast
8:56 AM 27.0 °F - 23.0 °F 85% 30.02 in 5.0 mi Calm Calm - 0.00 in Snow Light Snow
9:11 AM 26.6 °F - 23.0 °F 86% 29.98 in 2.0 mi Calm Calm - 0.00 in Snow Light Snow
9:15 AM 26.6 °F 22.6 °F 23.0 °F 86% 29.98 in 0.8 mi SSW 3.5 mph - 0.00 in Snow Light Snow
9:23 AM 26.6 °F - 24.8 °F 93% 29.98 in 1.0 mi Calm Calm - 0.00 in Snow Light Snow
9:27 AM 26.6 °F - 24.8 °F 93% 29.99 in 3.0 mi Calm Calm - 0.00 in Snow Light Snow
9:37 AM 28.4 °F 24.6 °F 24.8 °F 86% 29.99 in 9.0 mi SSW 3.5 mph - 0.00 in   Overcast
9:56 AM 28.9 °F 23.9 °F 25.0 °F 85% 30.03 in 8.0 mi SW 4.6 mph - 0.00 in Snow Light Snow
10:06 AM 30.2 °F 26.7 °F 26.6 °F 86% 29.99 in 9.0 mi SW 3.5 mph - 0.00 in   Scattered Clouds
10:56 AM 32.0 °F 22.5 °F 23.0 °F 69% 30.03 in 10.0 mi WSW 12.7 mph 17.3 mph 0.00 in   Scattered Clouds
12:32 PM 35.6 °F 26.2 °F 23.0 °F 60% 30.00 in 10.0 mi WSW 15.0 mph 19.6 mph N/A   Mostly Cloudy
12:56 PM 33.1 °F 24.4 °F 21.9 °F 64% 30.04 in 10.0 mi SW 11.5 mph - N/A   Mostly Cloudy
1:04 PM 32.0 °F 22.1 °F 21.2 °F 64% 30.00 in 10.0 mi SW 13.8 mph - N/A   Overcast
1:56 PM 32.0 °F 22.5 °F 21.0 °F 64% 30.04 in 10.0 mi SW 12.7 mph - N/A   Overcast
2:56 PM 33.1 °F 26.1 °F 19.9 °F 59% 30.05 in 10.0 mi SW 8.1 mph 18.4 mph N/A   Overcast
3:56 PM 32.0 °F 22.5 °F 18.0 °F 56% 30.05 in 10.0 mi SW 12.7 mph - N/A   Scattered Clouds
4:56 PM 30.0 °F 21.7 °F 19.0 °F 64% 30.07 in 10.0 mi SSW 9.2 mph - N/A   Clear
5:56 PM 28.9 °F 21.1 °F 18.0 °F 64% 30.09 in 10.0 mi SSW 8.1 mph - N/A   Clear
6:56 PM 28.0 °F 18.1 °F 19.0 °F 69% 30.09 in 10.0 mi SSW 11.5 mph - N/A   Clear
7:56 PM 28.0 °F 19.3 °F 19.0 °F 69% 30.11 in 10.0 mi SW 9.2 mph - N/A   Clear
8:56 PM 27.0 °F 18.7 °F 19.9 °F 75% 30.13 in 10.0 mi SSW 8.1 mph - N/A   Partly Cloudy
9:56 PM 28.0 °F 17.0 °F 19.9 °F 72% 30.13 in 10.0 mi SSW 13.8 mph - N/A   Clear
10:56 PM 28.0 °F 17.5 °F 19.9 °F 72% 30.14 in 10.0 mi SW 12.7 mph 19.6 mph N/A   Clear
11:56 PM 28.0 °F 18.1 °F 21.0 °F 75% 30.16 in 10.0 mi SW 11.5 mph - N/A   Clear